Time,TemperatureF,DewpointF,PressureIn,WindDirection,WindDirectionDegrees,WindSpeedMPH,WindSpeedGustMPH,Humidity,HourlyPrecipIn,Conditions,Clouds,dailyrainin,SolarRadiationWatts/m^2,SoftwareType,DateUTC
2013-03-05 00:00:00,33.7,29.7,29.90,ENE,78,6.0,7.0,85,0.00,,,0.00,0,Wunderground v.1.15,2013-03-05 06:00:00,
2013-03-05 00:05:00,33.8,29.8,29.90,ENE,76,6.0,7.0,85,0.00,,,0.00,0,Wunderground v.1.15,2013-03-05 06:05:00,
2013-03-05 00:10:00,33.9,29.6,29.90,ENE,69,6.0,6.0,84,0.00,,,0.00,0,Wunderground v.1.15,2013-03-05 06:10:00,
2013-03-05 00:20:00,33.9,29.9,29.90,ENE,77,6.0,6.0,85,0.00,,,0.00,0,Wunderground v.1.15,2013-03-05 06:20:00,
2013-03-05 00:25:00,33.9,29.6,29.90,ENE,78,6.0,9.0,84,0.00,,,0.00,0,Wunderground v.1.15,2013-03-05 06:25:00,
2013-03-05 00:30:00,33.9,29.9,29.90,East,80,6.0,6.0,85,0.00,,,0.00,0,Wunderground v.1.15,2013-03-05 06:30:00,
2013-03-05 00:35:00,33.9,29.9,29.90,ENE,77,6.0,6.0,85,0.00,,,0.00,0,Wunderground v.1.15,2013-03-05 06:35:00,
2013-03-05 00:40:00,33.9,30.2,29.90,ENE,76,5.0,6.0,86,0.00,,,0.00,0,Wunderground v.1.15,2013-03-05 06:40:00,
2013-03-05 00:45:00,33.8,30.1,29.90,ENE,75,4.0,6.0,86,0.00,,,0.00,0,Wunderground v.1.15,2013-03-05 06:45:00,
2013-03-05 00:55:00,33.7,30.0,29.90,ENE,75,3.0,4.0,86,0.00,,,0.00,0,Wunderground v.1.15,2013-03-05 06:55:00,
2013-03-05 01:00:00,33.8,30.1,29.90,ENE,75,3.0,3.0,86,0.00,,,0.00,0,Wunderground v.1.15,2013-03-05 07:00:00,
2013-03-05 01:05:00,33.8,30.1,29.90,ENE,75,4.0,5.0,86,0.00,,,0.00,0,Wunderground v.1.15,2013-03-05 07:05:00,
2013-03-05 01:10:00,33.8,31.7,29.90,ENE,75,4.0,5.0,92,0.00,,,0.00,0,Wunderground v.1.15,2013-03-05 07:10:00,
2013-03-05 01:15:00,33.7,30.2,29.90,ENE,75,4.0,5.0,87,0.00,,,0.00,0,Wunderground v.1.15,2013-03-05 07:15:00,
2013-03-05 01:25:00,33.6,30.4,29.90,ENE,75,3.0,3.0,88,0.00,,,0.00,0,Wunderground v.1.15,2013-03-05 07:25:00,
2013-03-05 01:30:00,33.5,30.3,29.89,ENE,75,3.0,3.0,88,0.00,,,0.00,0,Wunderground v.1.15,2013-03-05 07:30:00,
2013-03-05 01:35:00,33.5,30.3,29.89,ENE,75,3.0,3.0,88,0.00,,,0.00,0,Wunderground v.1.15,2013-03-05 07:35:00,
2013-03-05 01:40:00,33.4,30.2,29.89,ENE,75,3.0,3.0,88,0.00,,,0.00,0,Wunderground v.1.15,2013-03-05 07:40:00,
2013-03-05 01:45:00,33.4,30.2,29.89,ENE,75,3.0,3.0,88,0.00,,,0.00,0,Wunderground v.1.15,2013-03-05 07:45:00,
2013-03-05 01:50:00,33.4,30.5,29.89,ENE,75,3.0,4.0,89,0.00,,,0.00,0,Wunderground v.1.15,2013-03-05 07:50:00,
2013-03-05 02:00:00,33.3,30.4,29.89,ENE,75,3.0,3.0,89,0.00,,,0.00,0,Wunderground v.1.15,2013-03-05 08:00:00,
2013-03-05 02:09:00,33.3,30.4,29.89,ENE,75,2.0,4.0,89,0.00,,,0.00,0,Wunderground v.1.15,2013-03-05 08:09:00,
2013-03-05 02:14:00,33.3,30.7,29.89,ENE,75,2.0,4.0,90,0.00,,,0.01,0,Wunderground v.1.15,2013-03-05 08:14:00,
2013-03-05 02:19:00,33.2,30.6,29.89,ENE,75,1.0,1.0,90,0.00,,,0.01,0,Wunderground v.1.15,2013-03-05 08:19:00,
2013-03-05 02:24:00,33.2,30.6,29.89,ENE,75,1.0,1.0,90,0.00,,,0.01,0,Wunderground v.1.15,2013-03-05 08:24:00,
2013-03-05 02:30:00,33.2,30.6,29.89,ENE,75,0.0,0.0,90,0.00,,,0.01,0,Wunderground v.1.15,2013-03-05 08:30:00,
2013-03-05 02:35:00,33.2,30.6,29.89,ENE,75,0.0,0.0,90,0.00,,,0.01,0,Wunderground v.1.15,2013-03-05 08:35:00,
2013-03-05 02:40:00,33.2,30.6,29.89,ENE,75,0.0,0.0,90,0.00,,,0.01,0,Wunderground v.1.15,2013-03-05 08:40:00,
2013-03-05 02:45:00,33.2,30.6,29.89,ENE,75,0.0,0.0,90,0.00,,,0.01,0,Wunderground v.1.15,2013-03-05 08:45:00,
2013-03-05 02:50:00,33.2,30.6,29.89,ENE,75,0.0,0.0,90,0.00,,,0.01,0,Wunderground v.1.15,2013-03-05 08:50:00,
2013-03-05 02:55:00,33.0,30.7,29.89,ENE,75,1.0,1.0,91,0.00,,,0.01,0,Wunderground v.1.15,2013-03-05 08:55:00,
2013-03-05 03:04:00,33.0,30.7,29.88,ENE,75,0.0,1.0,91,0.00,,,0.01,0,Wunderground v.1.15,2013-03-05 09:04:00,
2013-03-05 03:09:00,32.9,30.6,29.88,ENE,75,0.0,0.0,91,0.00,,,0.01,0,Wunderground v.1.15,2013-03-05 09:09:00,
2013-03-05 03:14:00,32.8,30.7,29.88,ENE,75,0.0,0.0,92,0.00,,,0.01,0,Wunderground v.1.15,2013-03-05 09:14:00,
2013-03-05 03:19:00,32.8,30.7,29.87,ENE,75,0.0,0.0,92,0.00,,,0.01,0,Wunderground v.1.15,2013-03-05 09:19:00,
2013-03-05 03:24:00,32.6,30.5,29.87,ENE,75,0.0,0.0,92,0.00,,,0.01,0,Wunderground v.1.15,2013-03-05 09:24:00,
2013-03-05 03:29:00,32.6,30.5,29.87,ENE,75,0.0,0.0,92,0.00,,,0.01,0,Wunderground v.1.15,2013-03-05 09:29:00,
2013-03-05 03:35:00,32.5,30.4,29.87,ENE,75,0.0,0.0,92,0.00,,,0.01,0,Wunderground v.1.15,2013-03-05 09:35:00,
2013-03-05 03:40:00,32.4,30.6,29.87,ENE,75,0.0,0.0,93,0.00,,,0.01,0,Wunderground v.1.15,2013-03-05 09:40:00,
2013-03-05 03:45:00,32.3,30.5,29.87,ENE,75,0.0,1.0,93,0.00,,,0.01,0,Wunderground v.1.15,2013-03-05 09:45:00,
2013-03-05 03:50:00,32.2,30.4,29.87,ENE,75,0.0,0.0,93,0.00,,,0.01,0,Wunderground v.1.15,2013-03-05 09:50:00,
2013-03-05 03:55:00,32.2,30.4,29.87,ENE,75,1.0,1.0,93,0.00,,,0.01,0,Wunderground v.1.15,2013-03-05 09:55:00,
2013-03-05 04:00:00,32.1,30.6,29.87,ENE,75,1.0,2.0,94,0.00,,,0.01,0,Wunderground v.1.15,2013-03-05 10:00:00,
2013-03-05 04:09:00,32.0,30.5,29.86,ENE,75,1.0,2.0,94,0.00,,,0.01,0,Wunderground v.1.15,2013-03-05 10:09:00,
2013-03-05 04:15:00,32.0,30.5,29.87,ENE,74,1.0,2.0,94,0.00,,,0.01,0,Wunderground v.1.15,2013-03-05 10:15:00,
2013-03-05 04:20:00,32.0,30.5,29.87,ENE,74,1.0,1.0,94,0.00,,,0.01,0,Wunderground v.1.15,2013-03-05 10:20:00,
2013-03-05 04:25:00,32.0,30.5,29.87,ENE,74,0.0,1.0,94,0.00,,,0.01,0,Wunderground v.1.15,2013-03-05 10:25:00,
2013-03-05 04:30:00,32.0,30.5,29.87,ENE,74,0.0,1.0,94,0.00,,,0.01,0,Wunderground v.1.15,2013-03-05 10:30:00,
2013-03-05 04:35:00,32.0,30.7,29.87,ENE,74,1.0,1.0,95,0.00,,,0.01,0,Wunderground v.1.15,2013-03-05 10:35:00,
2013-03-05 04:44:00,31.9,30.6,29.87,ENE,74,1.0,1.0,95,0.00,,,0.01,0,Wunderground v.1.15,2013-03-05 10:44:00,
2013-03-05 04:50:00,31.9,30.6,29.88,ENE,74,0.0,1.0,95,0.00,,,0.01,0,Wunderground v.1.15,2013-03-05 10:50:00,
2013-03-05 04:55:00,31.9,30.6,29.88,ENE,74,1.0,1.0,95,0.00,,,0.01,0,Wunderground v.1.15,2013-03-05 10:55:00,
2013-03-05 05:00:00,31.9,30.6,29.88,ENE,74,1.0,1.0,95,0.00,,,0.01,0,Wunderground v.1.15,2013-03-05 11:00:00,
2013-03-05 05:05:00,31.9,30.6,29.88,ENE,74,0.0,1.0,95,0.00,,,0.01,0,Wunderground v.1.15,2013-03-05 11:05:00,
2013-03-05 05:15:00,31.9,30.6,29.89,NE,41,2.0,4.0,95,0.00,,,0.01,0,Wunderground v.1.15,2013-03-05 11:15:00,
2013-03-05 05:20:00,31.9,30.6,29.89,NNE,16,3.0,3.0,95,0.00,,,0.01,0,Wunderground v.1.15,2013-03-05 11:20:00,
2013-03-05 05:25:00,31.8,30.5,29.89,NNW,343,4.0,5.0,95,0.00,,,0.01,0,Wunderground v.1.15,2013-03-05 11:25:00,
2013-03-05 05:30:00,31.8,30.5,29.90,NNW,328,4.0,5.0,95,0.00,,,0.01,0,Wunderground v.1.15,2013-03-05 11:30:00,
2013-03-05 05:35:00,31.8,30.5,29.90,NW,318,5.0,5.0,95,0.00,,,0.01,0,Wunderground v.1.15,2013-03-05 11:35:00,
2013-03-05 05:40:00,31.7,30.4,29.90,NW,309,5.0,6.0,95,0.00,,,0.01,0,Wunderground v.1.15,2013-03-05 11:40:00,
2013-03-05 05:50:00,31.7,30.4,29.91,NW,307,6.0,6.0,95,0.00,,,0.01,0,Wunderground v.1.15,2013-03-05 11:50:00,
2013-03-05 05:55:00,31.7,30.4,29.91,NW,311,7.0,7.0,95,0.00,,,0.01,0,Wunderground v.1.15,2013-03-05 11:55:00,
2013-03-05 06:00:00,31.7,30.7,29.91,NW,313,6.0,6.0,96,0.00,,,0.01,0,Wunderground v.1.15,2013-03-05 12:00:00,
2013-03-05 06:05:00,31.6,30.6,29.90,NW,313,6.0,6.0,96,0.00,,,0.01,0,Wunderground v.1.15,2013-03-05 12:05:00,
2013-03-05 06:10:00,31.7,30.7,29.90,NW,313,6.0,6.0,96,0.00,,,0.01,0,Wunderground v.1.15,2013-03-05 12:10:00,
2013-03-05 06:20:00,31.7,30.7,29.91,NW,312,7.0,7.0,96,0.00,,,0.01,0,Wunderground v.1.15,2013-03-05 12:20:00,
2013-03-05 06:25:00,31.6,30.6,29.91,NW,312,8.0,9.0,96,0.00,,,0.01,0,Wunderground v.1.15,2013-03-05 12:25:00,
2013-03-05 06:30:00,31.6,30.6,29.91,NW,309,9.0,9.0,96,0.00,,,0.01,0,Wunderground v.1.15,2013-03-05 12:30:00,
2013-03-05 06:35:00,31.6,30.6,29.90,NW,312,9.0,9.0,96,0.00,,,0.01,0,Wunderground v.1.15,2013-03-05 12:35:00,
2013-03-05 06:40:00,31.6,30.6,29.90,NW,312,8.0,8.0,96,0.00,,,0.01,7,Wunderground v.1.15,2013-03-05 12:40:00,
2013-03-05 06:45:00,31.6,30.6,29.90,NW,313,8.0,10.0,96,0.00,,,0.01,5,Wunderground v.1.15,2013-03-05 12:45:00,
2013-03-05 06:55:00,31.5,30.5,29.91,NW,309,8.0,9.0,96,0.00,,,0.01,0,Wunderground v.1.15,2013-03-05 12:55:00,
2013-03-05 07:00:00,31.5,30.5,29.91,NW,309,8.0,9.0,96,0.00,,,0.01,5,Wunderground v.1.15,2013-03-05 13:00:00,
2013-03-05 07:05:00,31.4,30.4,29.90,NW,311,9.0,10.0,96,0.00,,,0.01,5,Wunderground v.1.15,2013-03-05 13:05:00,
2013-03-05 07:10:00,31.3,30.3,29.90,NW,312,10.0,10.0,96,0.00,,,0.01,7,Wunderground v.1.15,2013-03-05 13:10:00,
2013-03-05 07:15:00,31.3,30.3,29.90,NW,312,10.0,10.0,96,0.00,,,0.01,11,Wunderground v.1.15,2013-03-05 13:15:00,
2013-03-05 07:25:00,31.2,30.2,29.91,NW,305,10.0,10.0,96,0.00,,,0.01,18,Wunderground v.1.15,2013-03-05 13:25:00,
2013-03-05 07:30:00,31.1,30.1,29.91,WNW,300,9.0,9.0,96,0.00,,,0.01,18,Wunderground v.1.15,2013-03-05 13:30:00,
2013-03-05 07:35:00,31.1,30.1,29.91,WNW,298,8.0,10.0,96,0.00,,,0.01,21,Wunderground v.1.15,2013-03-05 13:35:00,
2013-03-05 07:40:00,31.0,30.0,29.91,WNW,297,9.0,10.0,96,0.00,,,0.01,26,Wunderground v.1.15,2013-03-05 13:40:00,
2013-03-05 07:45:00,31.0,30.0,29.91,WNW,300,11.0,11.0,96,0.00,,,0.01,32,Wunderground v.1.15,2013-03-05 13:45:00,
2013-03-05 07:50:00,31.0,30.0,29.91,WNW,298,11.0,11.0,96,0.00,,,0.01,37,Wunderground v.1.15,2013-03-05 13:50:00,
2013-03-05 08:00:00,30.9,29.9,29.91,WNW,298,11.0,11.0,96,0.00,,,0.01,46,Wunderground v.1.15,2013-03-05 14:00:00,
2013-03-05 08:05:00,30.8,29.8,29.91,WNW,297,11.0,14.0,96,0.00,,,0.01,51,Wunderground v.1.15,2013-03-05 14:05:00,
2013-03-05 08:10:00,30.7,29.7,29.91,WNW,298,13.0,14.0,96,0.00,,,0.01,62,Wunderground v.1.15,2013-03-05 14:10:00,
2013-03-05 08:15:00,30.6,29.6,29.91,NW,306,14.0,14.0,96,0.00,,,0.01,76,Wunderground v.1.15,2013-03-05 14:15:00,
2013-03-05 08:20:00,30.6,29.6,29.91,NW,304,15.0,15.0,96,0.00,,,0.01,86,Wunderground v.1.15,2013-03-05 14:20:00,
2013-03-05 08:30:00,30.6,29.6,29.91,NW,305,15.0,17.0,96,0.00,,,0.01,81,Wunderground v.1.15,2013-03-05 14:30:00,
2013-03-05 08:35:00,30.5,29.5,29.91,NW,304,16.0,17.0,96,0.00,,,0.01,93,Wunderground v.1.15,2013-03-05 14:35:00,
2013-03-05 08:40:00,30.5,29.5,29.91,NW,307,16.0,16.0,96,0.00,,,0.01,109,Wunderground v.1.15,2013-03-05 14:40:00,
2013-03-05 08:45:00,30.5,29.5,29.90,NW,309,15.0,16.0,96,0.00,,,0.01,149,Wunderground v.1.15,2013-03-05 14:45:00,
2013-03-05 08:50:00,30.6,29.6,29.90,NW,310,15.0,16.0,96,0.00,,,0.01,204,Wunderground v.1.15,2013-03-05 14:50:00,
2013-03-05 08:55:00,30.6,29.6,29.90,NW,308,15.0,16.0,96,0.00,,,0.01,190,Wunderground v.1.15,2013-03-05 14:55:00,
2013-03-05 09:05:00,30.6,29.6,29.90,NW,311,14.0,14.0,96,0.00,,,0.01,179,Wunderground v.1.15,2013-03-05 15:05:00,
2013-03-05 09:10:00,30.6,29.6,29.90,NW,310,14.0,14.0,96,0.00,,,0.01,176,Wunderground v.1.15,2013-03-05 15:10:00,
2013-03-05 09:15:00,30.6,29.6,29.90,NW,311,15.0,16.0,96,0.00,,,0.01,186,Wunderground v.1.15,2013-03-05 15:15:00,
2013-03-05 09:20:00,30.6,29.6,29.90,NW,313,16.0,19.0,96,0.00,,,0.01,197,Wunderground v.1.15,2013-03-05 15:20:00,
2013-03-05 09:25:00,30.6,29.6,29.90,NW,311,17.0,19.0,96,0.00,,,0.01,213,Wunderground v.1.15,2013-03-05 15:25:00,
2013-03-05 09:35:00,30.6,29.6,29.90,NW,311,18.0,20.0,96,0.00,,,0.01,236,Wunderground v.1.15,2013-03-05 15:35:00,
2013-03-05 09:40:00,30.6,29.6,29.90,WNW,296,19.0,22.0,96,0.00,,,0.01,265,Wunderground v.1.15,2013-03-05 15:40:00,
2013-03-05 09:45:00,30.6,29.6,29.90,WNW,298,19.0,23.0,96,0.00,,,0.01,281,Wunderground v.1.15,2013-03-05 15:45:00,
2013-03-05 09:50:00,30.6,29.6,29.91,WNW,300,19.0,19.0,96,0.00,,,0.01,294,Wunderground v.1.15,2013-03-05 15:50:00,
2013-03-05 09:55:00,30.5,29.2,29.90,NW,306,20.0,20.0,95,0.00,,,0.01,318,Wunderground v.1.15,2013-03-05 15:55:00,
2013-03-05 10:00:00,30.5,29.2,29.91,WNW,299,19.0,19.0,95,0.00,,,0.01,355,Wunderground v.1.15,2013-03-05 16:00:00,
2013-03-05 10:05:00,30.5,29.2,29.91,WNW,300,20.0,22.0,95,0.00,,,0.01,338,Wunderground v.1.15,2013-03-05 16:05:00,
2013-03-05 10:10:00,30.3,29.0,29.91,WNW,299,21.0,22.0,95,0.00,,,0.01,343,Wunderground v.1.15,2013-03-05 16:10:00,
2013-03-05 10:15:00,30.3,29.0,29.91,WNW,296,22.0,22.0,95,0.00,,,0.01,334,Wunderground v.1.15,2013-03-05 16:15:00,
2013-03-05 10:20:00,30.3,29.0,29.92,WNW,300,22.0,24.0,95,0.00,,,0.01,338,Wunderground v.1.15,2013-03-05 16:20:00,
2013-03-05 10:25:00,30.3,29.0,29.91,WNW,301,22.0,24.0,95,0.00,,,0.01,332,Wunderground v.1.15,2013-03-05 16:25:00,
2013-03-05 10:30:00,30.2,28.9,29.91,WNW,297,22.0,23.0,95,0.00,,,0.01,343,Wunderground v.1.15,2013-03-05 16:30:00,
2013-03-05 10:40:00,30.2,28.9,29.91,WNW,299,22.0,22.0,95,0.00,,,0.01,362,Wunderground v.1.15,2013-03-05 16:40:00,
2013-03-05 10:45:00,30.1,28.6,29.91,WNW,299,23.0,27.0,94,0.00,,,0.01,387,Wunderground v.1.15,2013-03-05 16:45:00,
2013-03-05 10:50:00,30.1,28.6,29.91,WNW,302,23.0,23.0,94,0.00,,,0.01,380,Wunderground v.1.15,2013-03-05 16:50:00,
2013-03-05 10:55:00,30.2,28.7,29.92,NW,309,22.0,23.0,94,0.00,,,0.01,376,Wunderground v.1.15,2013-03-05 16:55:00,
2013-03-05 11:00:00,30.2,28.4,29.91,WNW,302,22.0,23.0,93,0.00,,,0.01,401,Wunderground v.1.15,2013-03-05 17:00:00,
2013-03-05 11:10:00,30.3,28.5,29.91,WNW,295,23.0,23.0,93,0.00,,,0.01,404,Wunderground v.1.15,2013-03-05 17:10:00,
2013-03-05 11:15:00,30.4,28.6,29.91,NW,307,23.0,25.0,93,0.00,,,0.01,454,Wunderground v.1.15,2013-03-05 17:15:00,
2013-03-05 11:24:00,30.5,28.5,29.92,WNW,302,22.0,25.0,92,0.00,,,0.01,378,Wunderground v.1.15,2013-03-05 17:24:00,
2013-03-05 11:29:00,30.6,28.6,29.91,NW,309,21.0,24.0,92,0.00,,,0.01,357,Wunderground v.1.15,2013-03-05 17:29:00,
2013-03-05 11:34:00,30.6,28.6,29.92,WNW,300,22.0,24.0,92,0.00,,,0.01,381,Wunderground v.1.15,2013-03-05 17:34:00,
2013-03-05 11:39:00,30.5,28.5,29.91,NW,309,23.0,33.0,92,0.00,,,0.01,390,Wunderground v.1.15,2013-03-05 17:39:00,
2013-03-05 11:45:00,30.3,28.0,29.92,NW,306,26.0,33.0,91,0.00,,,0.01,418,Wunderground v.1.15,2013-03-05 17:45:00,
2013-03-05 11:50:00,30.3,28.0,29.92,WNW,302,25.0,25.0,91,0.00,,,0.01,392,Wunderground v.1.15,2013-03-05 17:50:00,
2013-03-05 11:55:00,30.4,28.1,29.92,WNW,300,22.0,25.0,91,0.00,,,0.01,413,Wunderground v.1.15,2013-03-05 17:55:00,
2013-03-05 12:00:00,30.5,28.2,29.92,WNW,302,22.0,22.0,91,0.00,,,0.01,415,Wunderground v.1.15,2013-03-05 18:00:00,
2013-03-05 12:10:00,30.5,27.9,29.93,WNW,294,22.0,22.0,90,0.00,,,0.01,369,Wunderground v.1.15,2013-03-05 18:10:00,
2013-03-05 12:19:00,30.5,27.6,29.93,WNW,302,23.0,24.0,89,0.00,,,0.01,446,Wunderground v.1.15,2013-03-05 18:19:00,
2013-03-05 12:24:00,30.6,27.7,29.93,WNW,300,23.0,24.0,89,0.00,,,0.01,455,Wunderground v.1.15,2013-03-05 18:24:00,
2013-03-05 12:29:00,30.6,27.7,29.93,WNW,297,22.0,23.0,89,0.00,,,0.01,457,Wunderground v.1.15,2013-03-05 18:29:00,
2013-03-05 12:34:00,30.7,27.8,29.93,NW,304,22.0,25.0,89,0.00,,,0.01,513,Wunderground v.1.15,2013-03-05 18:34:00,
2013-03-05 12:39:00,30.9,28.0,29.93,WNW,301,22.0,24.0,89,0.00,,,0.01,512,Wunderground v.1.15,2013-03-05 18:39:00,
2013-03-05 12:44:00,30.9,27.8,29.93,WNW,302,23.0,24.0,88,0.00,,,0.01,536,Wunderground v.1.15,2013-03-05 18:44:00,
2013-03-05 12:50:00,30.9,27.8,29.93,NW,304,24.0,26.0,88,0.00,,,0.01,457,Wunderground v.1.15,2013-03-05 18:50:00,
2013-03-05 12:55:00,30.8,27.7,29.93,NW,314,25.0,26.0,88,0.00,,,0.01,418,Wunderground v.1.15,2013-03-05 18:55:00,
2013-03-05 13:00:00,30.8,27.4,29.93,NW,306,25.0,29.0,87,0.00,,,0.01,478,Wunderground v.1.15,2013-03-05 19:00:00,
2013-03-05 13:10:00,30.8,27.4,29.93,NW,313,24.0,27.0,87,0.00,,,0.01,315,Wunderground v.1.15,2013-03-05 19:10:00,
2013-03-05 13:15:00,30.8,27.1,29.93,NW,305,25.0,28.0,86,0.00,,,0.01,378,Wunderground v.1.15,2013-03-05 19:15:00,
2013-03-05 13:24:00,30.7,27.3,29.93,WNW,297,24.0,26.0,87,0.00,,,0.01,383,Wunderground v.1.15,2013-03-05 19:24:00,
2013-03-05 13:29:00,30.8,27.4,29.93,WNW,299,22.0,22.0,87,0.00,,,0.01,308,Wunderground v.1.15,2013-03-05 19:29:00,
2013-03-05 13:35:00,30.8,27.1,29.93,WNW,294,20.0,22.0,86,0.00,,,0.01,297,Wunderground v.1.15,2013-03-05 19:35:00,
2013-03-05 13:40:00,30.6,26.9,29.93,WNW,284,19.0,19.0,86,0.00,,,0.02,332,Wunderground v.1.15,2013-03-05 19:40:00,
2013-03-05 13:45:00,30.6,26.9,29.93,WNW,295,18.0,19.0,86,0.00,,,0.02,353,Wunderground v.1.15,2013-03-05 19:45:00,
2013-03-05 13:50:00,30.5,26.8,29.94,WNW,287,18.0,18.0,86,0.00,,,0.02,343,Wunderground v.1.15,2013-03-05 19:50:00,
2013-03-05 13:59:00,30.4,26.4,29.94,WNW,282,18.0,18.0,85,0.00,,,0.02,334,Wunderground v.1.15,2013-03-05 19:59:00,
2013-03-05 14:05:00,30.3,26.0,29.94,WNW,292,19.0,24.0,84,0.00,,,0.02,327,Wunderground v.1.15,2013-03-05 20:05:00,
2013-03-05 14:10:00,30.3,26.0,29.94,WNW,288,20.0,20.0,84,0.00,,,0.02,323,Wunderground v.1.15,2013-03-05 20:10:00,
2013-03-05 14:15:00,30.2,25.9,29.94,WNW,289,20.0,20.0,84,0.00,,,0.02,334,Wunderground v.1.15,2013-03-05 20:15:00,
2013-03-05 14:20:00,30.1,25.8,29.94,WNW,300,21.0,21.0,84,0.00,,,0.02,334,Wunderground v.1.15,2013-03-05 20:20:00,
2013-03-05 14:30:00,30.3,25.8,29.94,WNW,296,21.0,21.0,83,0.00,,,0.02,308,Wunderground v.1.15,2013-03-05 20:30:00,
2013-03-05 14:35:00,30.2,25.7,29.94,WNW,297,20.0,21.0,83,0.00,,,0.02,290,Wunderground v.1.15,2013-03-05 20:35:00,
2013-03-05 14:40:00,30.2,25.7,29.94,WNW,296,20.0,20.0,83,0.00,,,0.02,295,Wunderground v.1.15,2013-03-05 20:40:00,
2013-03-05 14:45:00,30.3,25.5,29.94,WNW,297,20.0,20.0,82,0.00,,,0.02,299,Wunderground v.1.15,2013-03-05 20:45:00,
2013-03-05 14:50:00,30.2,25.4,29.94,WNW,294,20.0,20.0,82,0.00,,,0.02,297,Wunderground v.1.15,2013-03-05 20:50:00,
2013-03-05 14:55:00,30.3,25.5,29.94,WNW,287,21.0,21.0,82,0.00,,,0.02,299,Wunderground v.1.15,2013-03-05 20:55:00,
2013-03-05 15:05:00,30.4,25.6,29.94,WNW,299,20.0,21.0,82,0.00,,,0.02,271,Wunderground v.1.15,2013-03-05 21:05:00,
2013-03-05 15:10:00,30.5,25.7,29.95,WNW,292,19.0,19.0,82,0.00,,,0.02,251,Wunderground v.1.15,2013-03-05 21:10:00,
2013-03-05 15:15:00,30.5,25.4,29.94,WNW,293,19.0,19.0,81,0.00,,,0.02,244,Wunderground v.1.15,2013-03-05 21:15:00,
2013-03-05 15:20:00,30.4,25.6,29.95,WNW,292,19.0,19.0,82,0.00,,,0.02,250,Wunderground v.1.15,2013-03-05 21:20:00,
2013-03-05 15:25:00,30.4,25.6,29.95,WNW,296,19.0,19.0,82,0.00,,,0.02,223,Wunderground v.1.15,2013-03-05 21:25:00,
2013-03-05 15:35:00,30.5,25.7,29.95,WNW,288,19.0,24.0,82,0.00,,,0.02,246,Wunderground v.1.15,2013-03-05 21:35:00,
2013-03-05 15:40:00,30.6,25.8,29.95,WNW,295,19.0,19.0,82,0.00,,,0.02,294,Wunderground v.1.15,2013-03-05 21:40:00,
2013-03-05 15:45:00,30.7,25.9,29.95,WNW,294,18.0,19.0,82,0.00,,,0.02,253,Wunderground v.1.15,2013-03-05 21:45:00,
2013-03-05 15:50:00,30.7,25.9,29.95,WNW,298,20.0,23.0,82,0.00,,,0.02,209,Wunderground v.1.15,2013-03-05 21:50:00,
2013-03-05 15:55:00,30.5,25.7,29.95,WNW,298,23.0,23.0,82,0.00,,,0.02,188,Wunderground v.1.15,2013-03-05 21:55:00,
2013-03-05 16:00:00,30.4,25.9,29.95,WNW,290,23.0,23.0,83,0.00,,,0.02,153,Wunderground v.1.15,2013-03-05 22:00:00,
2013-03-05 16:05:00,30.4,25.6,29.96,WNW,298,21.0,23.0,82,0.00,,,0.02,141,Wunderground v.1.15,2013-03-05 22:05:00,
2013-03-05 16:15:00,30.3,26.0,29.96,WNW,298,22.0,25.0,84,0.00,,,0.02,155,Wunderground v.1.15,2013-03-05 22:15:00,
2013-03-05 16:20:00,30.3,26.0,29.96,WNW,296,22.0,27.0,84,0.00,,,0.02,148,Wunderground v.1.15,2013-03-05 22:20:00,
2013-03-05 16:25:00,30.3,25.8,29.96,WNW,300,22.0,27.0,83,0.00,,,0.02,148,Wunderground v.1.15,2013-03-05 22:25:00,
2013-03-05 16:30:00,30.3,25.8,29.96,WNW,298,22.0,22.0,83,0.00,,,0.02,116,Wunderground v.1.15,2013-03-05 22:30:00,
2013-03-05 16:35:00,30.4,26.1,29.96,WNW,299,21.0,22.0,84,0.00,,,0.02,100,Wunderground v.1.15,2013-03-05 22:35:00,
2013-03-05 16:45:00,30.4,26.1,29.97,NW,305,20.0,20.0,84,0.00,,,0.02,83,Wunderground v.1.15,2013-03-05 22:45:00,
2013-03-05 16:50:00,30.4,26.1,29.97,WNW,301,19.0,19.0,84,0.00,,,0.02,70,Wunderground v.1.15,2013-03-05 22:50:00,
2013-03-05 16:55:00,30.4,26.4,29.97,WNW,301,19.0,25.0,85,0.00,,,0.02,63,Wunderground v.1.15,2013-03-05 22:55:00,
2013-03-05 17:00:00,30.3,26.3,29.97,WNW,301,20.0,20.0,85,0.00,,,0.02,63,Wunderground v.1.15,2013-03-05 23:00:00,
2013-03-05 17:05:00,30.1,26.4,29.97,NW,308,22.0,25.0,86,0.00,,,0.02,56,Wunderground v.1.15,2013-03-05 23:05:00,
2013-03-05 17:15:00,30.0,26.6,29.98,WNW,298,25.0,25.0,87,0.00,,,0.02,39,Wunderground v.1.15,2013-03-05 23:15:00,
2013-03-05 17:20:00,29.9,26.8,29.98,WNW,303,25.0,25.0,88,0.00,,,0.02,30,Wunderground v.1.15,2013-03-05 23:20:00,
2013-03-05 17:25:00,29.8,26.7,29.98,NW,306,25.0,28.0,88,0.00,,,0.02,23,Wunderground v.1.15,2013-03-05 23:25:00,
2013-03-05 17:30:00,29.8,26.7,29.98,WNW,299,25.0,25.0,88,0.00,,,0.02,19,Wunderground v.1.15,2013-03-05 23:30:00,
2013-03-05 17:35:00,29.8,27.0,29.98,NW,304,24.0,26.0,89,0.00,,,0.02,11,Wunderground v.1.15,2013-03-05 23:35:00,
2013-03-05 17:40:00,29.7,26.9,29.99,WNW,302,23.0,26.0,89,0.00,,,0.02,11,Wunderground v.1.15,2013-03-05 23:40:00,
2013-03-05 17:50:00,29.7,26.9,30.00,NW,313,23.0,23.0,89,0.00,,,0.02,5,Wunderground v.1.15,2013-03-05 23:50:00,
2013-03-05 17:55:00,29.8,27.0,30.00,NW,313,23.0,26.0,89,0.00,,,0.02,0,Wunderground v.1.15,2013-03-05 23:55:00,
2013-03-05 18:00:00,29.8,26.7,30.01,NW,315,24.0,24.0,88,0.00,,,0.02,0,Wunderground v.1.15,2013-03-06 00:00:00,
2013-03-05 18:05:00,29.9,26.8,30.01,NW,311,24.0,24.0,88,0.00,,,0.02,0,Wunderground v.1.15,2013-03-06 00:05:00,
2013-03-05 18:10:00,29.9,26.8,30.01,WNW,301,24.0,24.0,88,0.00,,,0.02,0,Wunderground v.1.15,2013-03-06 00:10:00,
2013-03-05 18:20:00,29.9,26.8,30.01,WNW,300,24.0,26.0,88,0.00,,,0.02,0,Wunderground v.1.15,2013-03-06 00:20:00,
2013-03-05 18:25:00,29.9,26.8,30.01,NW,306,25.0,26.0,88,0.00,,,0.02,0,Wunderground v.1.15,2013-03-06 00:25:00,
2013-03-05 18:30:00,29.9,26.8,30.01,NW,307,25.0,29.0,88,0.00,,,0.02,0,Wunderground v.1.15,2013-03-06 00:30:00,
2013-03-05 18:35:00,29.9,26.8,30.01,WNW,303,25.0,29.0,88,0.00,,,0.02,0,Wunderground v.1.15,2013-03-06 00:35:00,
2013-03-05 18:40:00,29.8,26.7,30.01,NW,310,24.0,26.0,88,0.00,,,0.02,0,Wunderground v.1.15,2013-03-06 00:40:00,
2013-03-05 18:45:00,29.8,26.7,30.01,WNW,302,25.0,27.0,88,0.00,,,0.02,0,Wunderground v.1.15,2013-03-06 00:45:00,
2013-03-05 18:55:00,29.9,27.1,30.02,WNW,298,24.0,25.0,89,0.00,,,0.02,0,Wunderground v.1.15,2013-03-06 00:55:00,
2013-03-05 19:00:00,29.9,27.1,30.02,NW,306,24.0,24.0,89,0.00,,,0.02,0,Wunderground v.1.15,2013-03-06 01:00:00,
2013-03-05 19:05:00,29.9,27.1,30.02,WNW,302,24.0,24.0,89,0.00,,,0.02,0,Wunderground v.1.15,2013-03-06 01:05:00,
2013-03-05 19:10:00,29.9,27.1,30.02,NW,304,24.0,24.0,89,0.00,,,0.02,0,Wunderground v.1.15,2013-03-06 01:10:00,
2013-03-05 19:15:00,29.9,27.1,30.02,NW,304,25.0,25.0,89,0.00,,,0.02,0,Wunderground v.1.15,2013-03-06 01:15:00,
2013-03-05 19:25:00,29.9,27.1,30.02,NW,309,25.0,26.0,89,0.00,,,0.02,0,Wunderground v.1.15,2013-03-06 01:25:00,
2013-03-05 19:30:00,29.9,27.1,30.02,NW,304,26.0,26.0,89,0.00,,,0.02,0,Wunderground v.1.15,2013-03-06 01:30:00,
2013-03-05 19:35:00,29.9,27.1,30.02,WNW,303,25.0,26.0,89,0.00,,,0.02,0,Wunderground v.1.15,2013-03-06 01:35:00,
2013-03-05 19:40:00,29.9,27.1,30.03,NW,305,24.0,24.0,89,0.00,,,0.02,0,Wunderground v.1.15,2013-03-06 01:40:00,
2013-03-05 19:45:00,29.9,27.1,30.03,WNW,301,25.0,26.0,89,0.00,,,0.02,0,Wunderground v.1.15,2013-03-06 01:45:00,
2013-03-05 19:50:00,29.9,26.8,30.03,WNW,303,25.0,25.0,88,0.00,,,0.02,0,Wunderground v.1.15,2013-03-06 01:50:00,
2013-03-05 20:00:00,30.0,26.9,30.03,NW,309,24.0,29.0,88,0.00,,,0.02,0,Wunderground v.1.15,2013-03-06 02:00:00,
2013-03-05 20:05:00,30.0,26.9,30.03,NW,305,24.0,29.0,88,0.00,,,0.02,0,Wunderground v.1.15,2013-03-06 02:05:00,
2013-03-05 20:10:00,29.9,26.8,30.03,NW,305,24.0,24.0,88,0.00,,,0.02,0,Wunderground v.1.15,2013-03-06 02:10:00,
2013-03-05 20:15:00,29.9,26.5,30.03,NW,307,24.0,24.0,87,0.00,,,0.02,0,Wunderground v.1.15,2013-03-06 02:15:00,
2013-03-05 20:20:00,30.0,26.9,30.04,NW,311,25.0,26.0,88,0.00,,,0.02,0,Wunderground v.1.15,2013-03-06 02:20:00,
2013-03-05 20:30:00,29.9,26.8,30.05,NW,318,25.0,25.0,88,0.00,,,0.02,0,Wunderground v.1.15,2013-03-06 02:30:00,
2013-03-05 20:35:00,29.9,26.8,30.05,NW,323,24.0,25.0,88,0.00,,,0.02,0,Wunderground v.1.15,2013-03-06 02:35:00,
2013-03-05 20:40:00,29.9,26.8,30.06,NW,311,22.0,27.0,88,0.00,,,0.02,0,Wunderground v.1.15,2013-03-06 02:40:00,
2013-03-05 20:45:00,29.8,26.7,30.06,NW,322,22.0,27.0,88,0.00,,,0.02,0,Wunderground v.1.15,2013-03-06 02:45:00,
2013-03-05 20:50:00,29.9,26.8,30.06,NW,316,21.0,21.0,88,0.00,,,0.02,0,Wunderground v.1.15,2013-03-06 02:50:00,
2013-03-05 20:55:00,29.9,26.5,30.07,NW,323,20.0,22.0,87,0.00,,,0.02,0,Wunderground v.1.15,2013-03-06 02:55:00,
2013-03-05 21:05:00,29.9,26.5,30.08,NW,324,18.0,19.0,87,0.00,,,0.02,0,Wunderground v.1.15,2013-03-06 03:05:00,
2013-03-05 21:10:00,29.9,26.5,30.08,NW,325,16.0,20.0,87,0.00,,,0.02,0,Wunderground v.1.15,2013-03-06 03:10:00,
2013-03-05 21:15:00,29.9,26.5,30.08,NW,318,15.0,23.0,87,0.00,,,0.02,0,Wunderground v.1.15,2013-03-06 03:15:00,
2013-03-05 21:20:00,29.8,26.7,30.09,NW,317,16.0,19.0,88,0.00,,,0.02,0,Wunderground v.1.15,2013-03-06 03:20:00,
2013-03-05 21:25:00,29.8,26.7,30.09,NW,325,15.0,22.0,88,0.00,,,0.02,0,Wunderground v.1.15,2013-03-06 03:25:00,
2013-03-05 21:35:00,29.7,26.6,30.10,NW,322,16.0,16.0,88,0.00,,,0.02,0,Wunderground v.1.15,2013-03-06 03:35:00,
2013-03-05 21:40:00,29.7,26.6,30.10,NW,321,17.0,19.0,88,0.00,,,0.02,0,Wunderground v.1.15,2013-03-06 03:40:00,
2013-03-05 21:45:00,29.7,26.6,30.10,NW,313,18.0,19.0,88,0.00,,,0.02,0,Wunderground v.1.15,2013-03-06 03:45:00,
2013-03-05 21:50:00,29.7,26.6,30.10,NW,318,20.0,20.0,88,0.00,,,0.02,0,Wunderground v.1.15,2013-03-06 03:50:00,
2013-03-05 21:55:00,29.6,26.5,30.11,NW,323,22.0,22.0,88,0.00,,,0.02,0,Wunderground v.1.15,2013-03-06 03:55:00,
2013-03-05 22:00:00,29.6,26.8,30.11,NW,321,20.0,20.0,89,0.00,,,0.02,0,Wunderground v.1.15,2013-03-06 04:00:00,
2013-03-05 22:05:00,29.6,26.8,30.11,NW,319,18.0,20.0,89,0.00,,,0.02,0,Wunderground v.1.15,2013-03-06 04:05:00,
2013-03-05 22:10:00,29.6,26.8,30.12,NW,320,17.0,17.0,89,0.00,,,0.02,0,Wunderground v.1.15,2013-03-06 04:10:00,
2013-03-05 22:15:00,29.5,26.7,30.12,NW,322,15.0,17.0,89,0.00,,,0.02,0,Wunderground v.1.15,2013-03-06 04:15:00,
2013-03-05 22:20:00,29.5,26.7,30.12,NW,321,14.0,14.0,89,0.00,,,0.02,0,Wunderground v.1.15,2013-03-06 04:20:00,
2013-03-05 22:25:00,29.5,26.7,30.12,NNW,333,13.0,14.0,89,0.00,,,0.02,0,Wunderground v.1.15,2013-03-06 04:25:00,
2013-03-05 22:30:00,29.6,26.8,30.12,NNW,333,13.0,13.0,89,0.00,,,0.02,0,Wunderground v.1.15,2013-03-06 04:30:00,
2013-03-05 22:40:00,29.6,26.8,30.13,NNW,329,13.0,14.0,89,0.00,,,0.02,0,Wunderground v.1.15,2013-03-06 04:40:00,
2013-03-05 22:45:00,29.4,26.3,30.13,NNW,340,12.0,14.0,88,0.00,,,0.02,0,Wunderground v.1.15,2013-03-06 04:45:00,
2013-03-05 22:50:00,29.4,26.3,30.13,NW,325,12.0,12.0,88,0.00,,,0.02,0,Wunderground v.1.15,2013-03-06 04:50:00,
2013-03-05 22:55:00,29.4,26.3,30.13,NNW,336,11.0,12.0,88,0.00,,,0.02,0,Wunderground v.1.15,2013-03-06 04:55:00,
2013-03-05 23:00:00,29.3,25.9,30.13,NNW,331,10.0,12.0,87,0.00,,,0.02,0,Wunderground v.1.15,2013-03-06 05:00:00,
2013-03-05 23:09:00,29.4,26.3,30.14,NNW,338,11.0,11.0,88,0.00,,,0.02,0,Wunderground v.1.15,2013-03-06 05:09:00,
2013-03-05 23:14:00,29.4,26.3,30.14,NW,324,11.0,11.0,88,0.00,,,0.02,0,Wunderground v.1.15,2013-03-06 05:14:00,
2013-03-05 23:19:00,29.4,26.3,30.14,NW,324,11.0,12.0,88,0.00,,,0.02,0,Wunderground v.1.15,2013-03-06 05:19:00,
2013-03-05 23:24:00,29.4,26.3,30.14,NW,321,12.0,16.0,88,0.00,,,0.02,0,Wunderground v.1.15,2013-03-06 05:24:00,
2013-03-05 23:29:00,29.3,26.2,30.14,NW,322,13.0,17.0,88,0.00,,,0.02,0,Wunderground v.1.15,2013-03-06 05:29:00,
2013-03-05 23:34:00,29.3,26.2,30.14,NW,321,14.0,17.0,88,0.00,,,0.02,0,Wunderground v.1.15,2013-03-06 05:34:00,
2013-03-05 23:39:00,29.2,26.1,30.15,NW,322,15.0,17.0,88,0.00,,,0.02,0,Wunderground v.1.15,2013-03-06 05:39:00,
2013-03-05 23:45:00,29.3,25.9,30.16,NW,326,15.0,17.0,87,0.00,,,0.02,0,Wunderground v.1.15,2013-03-06 05:45:00,
2013-03-05 23:50:00,29.3,26.2,30.16,NNW,328,14.0,14.0,88,0.00,,,0.02,0,Wunderground v.1.15,2013-03-06 05:50:00,
2013-03-05 23:55:00,29.3,26.2,30.16,NW,319,15.0,17.0,88,0.00,,,0.02,0,Wunderground v.1.15,2013-03-06 05:55:00,